Weather History for Del Bajio, Mexico

Change the Weather History Date:

Wednesday, February 1, 2012

  Actual Average Record
Temperature  
Mean Temperature 64 °F -  
Max Temperature 77 °F 75 °F 86 °F (2013)
Min Temperature 51 °F 44 °F 37 °F (2004)
Degree Days  
Heating Degree Days 1    
Growing Degree Days 14 (Base 50)    
Moisture  
Dew Point 49 °F    
Average Humidity 73    
Maximum Humidity 100    
Minimum Humidity 27    
Precipitation  
Precipitation 0.00 in - - ()
Sea Level Pressure  
Sea Level Pressure 30.18 in    
Wind  
Wind Speed 2 mph ()    
Max Wind Speed 12 mph    
Max Gust Speed -    
Visibility 8.0 miles    
Events Rain    
Averages and records for this station are not official NWS values.
T = Trace of Precipitation, MM = Missing Value Source: Averaged Metar Reports

Daily Weather History Graph

Daily Weather History Graph

Search for Another Location

Airport:

Trip Planner

Search our weather history database for the weather conditions in past years. The results will help you decide how hot, cold, wet, or windy it might be!

Date:

Astronomy

Feb. 01, 2012 Rise Set
Actual Time 7:22 AM CST 6:36 PM CST
Civil Twilight 6:59 AM CST 6:59 PM CST
Nautical Twilight 6:33 AM CST 7:26 PM CST
Astronomical Twilight 6:06 AM CST 7:52 PM CST
Moon 1:16 PM CST (2/1) 2:01 AM CST (2/1)
Length of Visible Light 11h 59m
Length of Day
11h 13m
Waxing Gibbous, 65% of the Moon is Illuminated
Feb 1
Waxing Gibbous
Feb 7
Full
Feb 14
Last Quarter
Feb 21
New
Feb 29
First Quarter

Hourly Weather History & Observations

Time (CST) Temp. Dew Point Humidity Pressure Visibility Wind Dir Wind Speed Gust Speed Precip Events Conditions
12:50 AM 53.6 °F 53.6 °F 100% 30.33 in 8.0 mi Calm Calm - N/A   Overcast
1:50 AM 53.6 °F 50.0 °F 88% 30.32 in 8.0 mi Calm Calm - N/A   Overcast
2:46 AM 53.6 °F 53.6 °F 100% 29.98 in 8.0 mi ENE 6.9 mph - N/A Rain Light Rain
4:49 AM 53.6 °F 50.0 °F 88% 30.27 in 8.0 mi Calm Calm - N/A   Overcast
5:50 AM 51.8 °F 48.2 °F 88% 30.11 in 8.0 mi Calm Calm - N/A   Overcast
6:50 AM 51.8 °F 48.2 °F 88% 30.28 in 6.0 mi SE 6.9 mph - N/A   Overcast
7:42 AM 51.8 °F 50.0 °F 94% 30.30 in 5.0 mi Calm Calm - N/A   Overcast
8:45 AM 53.6 °F 50.0 °F 88% 30.08 in 5.0 mi Calm Calm - N/A   Overcast
9:46 AM 57.2 °F 55.4 °F 94% 30.33 in 6.0 mi Calm Calm - N/A   Overcast
10:43 AM 59.0 °F 53.6 °F 82% 30.34 in 7.0 mi Calm Calm - N/A   Overcast
11:43 AM 64.4 °F 51.8 °F 64% 30.02 in 8.0 mi Calm Calm - N/A   Overcast
1:06 PM 66.2 °F 48.2 °F 52% 30.28 in 10.0 mi Calm Calm - N/A   Overcast
1:43 PM 68.0 °F 48.2 °F 49% 30.25 in 10.0 mi Calm Calm - N/A   Overcast
2:47 PM 69.8 °F 46.4 °F 43% 29.93 in 10.0 mi SSW 3.5 mph - N/A   Overcast
3:59 PM 75.2 °F 39.2 °F 27% 30.21 in 10.0 mi Calm Calm - N/A   Mostly Cloudy
4:40 PM 77.0 °F 42.8 °F 29% 30.19 in 10.0 mi Calm Calm - N/A   Mostly Cloudy
5:44 PM 69.8 °F 42.8 °F 38% 29.90 in 10.0 mi Calm Calm - N/A   Overcast
6:47 PM 66.2 °F 44.6 °F 46% 30.21 in 8.0 mi Calm Calm - N/A   Overcast
7:40 PM 66.2 °F 44.6 °F 46% 30.22 in 8.0 mi SSE 6.9 mph - N/A   Overcast
8:40 PM 55.4 °F 51.8 °F 88% 30.05 in 7.0 mi SSE 10.4 mph - N/A Rain Light Rain
9:41 PM 55.4 °F 55.4 °F 100% 30.24 in 8.0 mi ENE 11.5 mph - N/A   Overcast
10:42 PM 55.4 °F 51.8 °F 88% 30.24 in 8.0 mi NE 8.1 mph - N/A   Overcast
11:43 PM 55.4 °F 51.8 °F 88% 29.97 in 8.0 mi NE 5.8 mph - N/A   Overcast